QPF
0.05 0.05 0.06 0.07 0.07 0.07 0.08 0.08 0.08 0.07 0.08 0.08 0.11 0.19 0.23 0.20 0.20 0.17 0.14 0.11 0.11 0.10 0.09 0.07 0.07 0.06 0.06 0.07 0.07 0.08 0.07 0.06 0.05 0.05 0.05 0.07 0.10 0.13
0.06 0.06 0.06 0.06 0.07 0.08 0.08 0.08 0.08 0.08 0.09 0.10 0.11 0.16 0.23 0.17 0.14 0.10 0.08 0.06 0.07 0.08 0.08 0.06 0.04 0.03 0.03 0.05 0.05 0.06 0.06 0.05 0.05 0.04 0.04 0.05 0.06 0.06
0.06 0.05 0.04 0.06 0.09 0.10 0.10 0.08 0.07 0.07 0.08 0.10 0.12 0.12 0.15 0.13 0.10 0.10 0.07 0.06 0.05 0.07 0.09 0.09 0.07 0.05 0.05 0.05 0.05 0.05 0.06 0.06 0.05 0.05 0.05 0.05 0.05 0.05
0.05 0.05 0.06 0.06 0.05 0.05 0.05 0.04 0.04 0.05 0.06 0.07 0.07 0.08 0.08 0.09 0.09 0.10 0.09 0.09 0.09 0.09 0.08 0.07 0.06 0.05 0.04 0.05 0.07 0.08 0.08 0.08 0.07 0.07 0.06 0.06 0.05 0.05
0.06 0.04 0.04 0.05 0.05 0.05 0.04 0.03 0.03 0.04 0.04 0.04 0.03 0.03 0.05 0.05 0.06 0.08 0.11 0.12 0.11 0.09 0.09 0.07 0.06 0.05 0.04 0.03 0.04 0.04 0.05 0.05 0.05 0.06 0.05 0.06 0.05 0.05
0.05 0.03 0.01 0.02 0.02 0.01 0.02 0.03 0.04 0.04 0.03 0.03 0.03 0.04 0.05 0.06 0.07 0.08 0.09 0.09 0.09 0.08 0.08 0.06 0.05 0.04 0.03 0.02 0.02 0.03 0.03 0.03 0.03 0.03 0.04 0.04 0.04 0.04
0.04 0.03 0.02 0.03 0.04 0.04 0.03 0.02 0.03 0.04 0.03 0.03 0.04 0.06 0.07 0.07 0.07 0.08 0.08 0.08 0.07 0.08 0.08 0.06 0.05 0.04 0.03 0.03 0.03 0.03 0.02 0.02 0.02 0.02 0.02 0.03 0.03 0.03
0.03 0.03 0.02 0.02 0.03 0.04 0.04 0.04 0.03 0.04 0.04 0.04 0.03 0.03 0.04 0.05 0.05 0.06 0.05 0.05 0.06 0.07 0.07 0.06 0.04 0.03 0.03 0.03 0.03 0.02 0.01 0.01 0.01 0.01 0.01 0.02 0.03 0.03
0.05 0.02 0.01 0.01 0.01 0.02 0.03 0.04 0.04 0.03 0.03 0.03 0.03 0.03 0.02 0.03 0.03 0.03 0.04 0.04 0.04 0.03 0.03 0.02 0.02 0.01 0.01 0.01 0.01 0.01 0.01 0.01 0.01 0.01 0.01 0.01 0.02 0.03
0.02 0.01 0.00 0.00 0.00 0.01 0.02 0.03 0.02 0.02 0.01 0.01 0.01 0.02 0.02 0.02 0.02 0.01 0.01 0.01 0.01 0.01 0.01 0.01 0.01 0.01 0.00 0.01 0.01 0.01 0.01 0.01 0.01 0.01 0.01 0.01 0.01 0.02
0.00 0.00 0.01 0.00 0.01 0.02 0.02 0.02 0.01 0.01 0.01 0.01 0.01 0.01 0.02 0.02 0.01 0.00 0.00 0.01 0.01 0.02 0.02 0.02 0.01 0.01 0.01 0.01 0.01 0.01 0.01 0.01 0.02 0.02 0.02 0.01 0.01 0.01
0.00 0.00 0.00 0.00 0.01 0.01 0.02 0.01 0.01 0.01 0.01 0.01 0.01 0.01 0.01 0.01 0.01 0.00 0.01 0.01 0.01 0.02 0.01 0.01 0.01 0.01 0.01 0.01 0.00 0.00 0.00 0.01 0.01 0.01 0.01 0.01 0.01 0.01
0.00 0.00 0.00 0.00 0.00 0.01 0.01 0.01 0.01 0.01 0.01 0.01 0.01 0.01 0.01 0.01 0.01 0.01 0.01 0.01 0.01 0.01 0.01 0.01 0.01 0.01 0.01 0.01 0.00 0.00 0.00 0.00 0.00 0.01 0.01 0.01 0.00 0.00
0.00 0.01 0.01 0.01 0.01 0.01 0.01 0.02 0.03 0.02 0.02 0.02 0.01 0.01 0.01 0.01 0.01 0.01 0.00 0.00 0.00 0.00 0.00 0.00 0.00 0.00 0.00 0.00 0.00 0.00 0.00 0.00 0.00 0.00 0.00 0.00 0.00 0.00
0.01 0.02 0.03 0.04 0.03 0.02 0.03 0.03 0.03 0.03 0.02 0.01 0.01 0.01 0.01 0.01 0.01 0.01 0.01 0.01 0.01 0.00 0.00 0.00 0.00 0.00 0.00 0.00 0.00 0.00 0.00 0.00 0.00 0.00 0.00 0.00 0.00 0.00
0.01 0.01 0.02 0.04 0.04 0.03 0.03 0.02 0.02 0.02 0.02 0.01 0.01 0.01 0.00 0.01 0.01 0.01 0.01 0.01 0.00 0.00 0.00 0.00 0.00 0.00 0.00 0.00 0.00 0.00 0.00 0.00 0.00 0.00 0.00 0.00 0.00 0.00
0.00 0.00 0.00 0.01 0.02 0.02 0.02 0.02 0.01 0.01 0.01 0.00 0.00 0.00 0.01 0.00 0.01 0.01 0.01 0.01 0.00 0.00 0.00 0.00 0.00 0.00 0.00 0.00 0.00 0.00 0.00 0.00 0.00 0.00 0.00 0.00 0.00 0.00
0.00 0.00 0.00 0.00 0.00 0.00 0.00 0.00 0.00 0.00 0.01 0.00 0.00 0.00 0.00 0.01 0.00 0.01 0.01 0.01 0.00 0.00 0.00 0.00 0.00 0.00 0.00 0.00 0.00 0.00 0.00 0.00 0.00 0.00 0.00 0.00 0.00 0.00
0.01 0.01 0.01 0.01 0.00 0.00 0.00 0.00 0.01 0.01 0.00 0.00 0.00 0.00 0.00 0.01 0.01 0.01 0.01 0.01 0.01 0.01 0.00 0.00 0.00 0.00 0.00 0.00 0.00 0.00 0.00 0.00 0.00 0.00 0.00 0.00 0.00 0.00
0.01 0.01 0.01 0.00 0.00 0.00 0.00 0.00 0.00 0.00 0.01 0.01 0.01 0.01 0.01 0.01 0.01 0.01 0.01 0.01 0.01 0.00 0.00 0.00 0.00 0.00 0.00 0.00 0.00 0.00 0.00 0.00 0.00 0.00 0.00 0.00 0.00 0.00
0.01 0.01 0.00 0.00 0.00 0.00 0.00 0.00 0.00 0.00 0.00 0.00 0.01 0.01 0.01 0.01 0.01 0.01 0.01 0.01 0.01 0.01 0.01 0.00 0.00 0.00 0.00 0.00 0.00 0.00 0.00 0.00 0.00 0.00 0.00 0.00 0.00 0.00
0.00 0.00 0.00 0.00 0.00 0.00 0.00 0.00 0.00 0.00 0.00 0.00 0.00 0.01 0.01 0.01 0.01 0.01 0.01 0.01 0.02 0.02 0.01 0.00 0.00 0.00 0.00 0.00 0.00 0.00 0.00 0.00 0.00 0.00 0.00 0.00 0.00 0.00
0.00 0.00 0.00 0.00 0.00 0.00 0.00 0.00 0.00 0.00 0.00 0.00 0.00 0.00 0.00 0.00 0.00 0.01 0.01 0.01 0.02 0.03 0.02 0.01 0.01 0.01 0.00 0.00 0.00 0.00 0.00 0.00 0.00 0.00 0.01 0.01 0.01 0.01
MSLP
1015.55 1015.51 1015.52 1015.56 1015.64 1015.73 1015.84 1015.98 1016.15 1016.37 1016.64 1016.96 1017.32 1017.68 1018.01 1018.29 1018.47 1018.53 1018.47 1018.30 1018.04 1017.70 1017.32 1016.92 1016.51 1016.10 1015.69 1015.26 1014.82 1014.38 1013.94 1013.52 1013.17 1012.90 1012.75 1012.74 1012.89 1013.19
1015.82 1015.72 1015.66 1015.62 1015.61 1015.63 1015.69 1015.82 1016.01 1016.29 1016.65 1017.08 1017.55 1018.03 1018.46 1018.81 1019.03 1019.12 1019.07 1018.88 1018.59 1018.23 1017.83 1017.42 1017.00 1016.58 1016.16 1015.73 1015.27 1014.80 1014.31 1013.85 1013.43 1013.10 1012.88 1012.82 1012.92 1013.18
1016.11 1016.00 1015.88 1015.78 1015.70 1015.66 1015.68 1015.77 1015.96 1016.27 1016.68 1017.18 1017.73 1018.29 1018.79 1019.21 1019.48 1019.61 1019.58 1019.42 1019.15 1018.82 1018.44 1018.06 1017.68 1017.30 1016.91 1016.49 1016.05 1015.58 1015.08 1014.59 1014.14 1013.77 1013.51 1013.40 1013.46 1013.68
1016.40 1016.29 1016.16 1016.02 1015.90 1015.80 1015.77 1015.82 1015.99 1016.29 1016.71 1017.24 1017.83 1018.43 1018.98 1019.44 1019.77 1019.96 1019.99 1019.89 1019.69 1019.42 1019.13 1018.82 1018.51 1018.20 1017.87 1017.51 1017.10 1016.64 1016.16 1015.67 1015.21 1014.82 1014.54 1014.41 1014.43 1014.63
1016.65 1016.56 1016.44 1016.29 1016.14 1016.01 1015.94 1015.95 1016.07 1016.33 1016.72 1017.23 1017.81 1018.42 1018.99 1019.49 1019.87 1020.12 1020.24 1020.24 1020.15 1020.00 1019.82 1019.63 1019.43 1019.21 1018.96 1018.66 1018.31 1017.89 1017.44 1016.97 1016.52 1016.14 1015.86 1015.72 1015.74 1015.90
1016.85 1016.79 1016.70 1016.56 1016.41 1016.25 1016.14 1016.10 1016.17 1016.36 1016.69 1017.14 1017.68 1018.26 1018.83 1019.35 1019.79 1020.11 1020.33 1020.45 1020.50 1020.49 1020.46 1020.41 1020.33 1020.22 1020.07 1019.85 1019.55 1019.19 1018.77 1018.34 1017.93 1017.57 1017.32 1017.20 1017.21 1017.37
1016.98 1016.96 1016.90 1016.79 1016.64 1016.48 1016.33 1016.25 1016.25 1016.37 1016.62 1016.99 1017.46 1017.99 1018.53 1019.06 1019.53 1019.94 1020.26 1020.51 1020.71 1020.86 1020.98 1021.07 1021.13 1021.14 1021.08 1020.94 1020.71 1020.40 1020.04 1019.65 1019.28 1018.98 1018.77 1018.68 1018.71 1018.87
1017.05 1017.06 1017.03 1016.95 1016.82 1016.66 1016.50 1016.38 1016.32 1016.37 1016.53 1016.80 1017.19 1017.65 1018.16 1018.67 1019.17 1019.64 1020.06 1020.43 1020.77 1021.07 1021.33 1021.56 1021.74 1021.86 1021.89 1021.82 1021.67 1021.42 1021.12 1020.80 1020.49 1020.24 1020.08 1020.04 1020.11 1020.28
1017.04 1017.08 1017.08 1017.04 1016.94 1016.79 1016.63 1016.48 1016.38 1016.36 1016.44 1016.63 1016.93 1017.32 1017.77 1018.27 1018.77 1019.28 1019.77 1020.24 1020.68 1021.10 1021.49 1021.83 1022.12 1022.33 1022.44 1022.46 1022.37 1022.19 1021.96 1021.71 1021.48 1021.30 1021.20 1021.21 1021.32 1021.50
1016.93 1017.00 1017.04 1017.03 1016.97 1016.86 1016.72 1016.56 1016.44 1016.38 1016.40 1016.52 1016.74 1017.06 1017.46 1017.91 1018.41 1018.92 1019.45 1019.97 1020.48 1020.98 1021.45 1021.88 1022.24 1022.52 1022.71 1022.80 1022.79 1022.69 1022.54 1022.37 1022.22 1022.11 1022.08 1022.15 1022.29 1022.49
1016.73 1016.82 1016.91 1016.95 1016.94 1016.87 1016.76 1016.64 1016.52 1016.44 1016.43 1016.50 1016.66 1016.92 1017.25 1017.66 1018.12 1018.61 1019.13 1019.66 1020.20 1020.73 1021.24 1021.71 1022.12 1022.47 1022.72 1022.88 1022.94 1022.93 1022.87 1022.79 1022.72 1022.70 1022.73 1022.84 1023.02 1023.24
1016.42 1016.55 1016.68 1016.78 1016.83 1016.83 1016.78 1016.69 1016.60 1016.53 1016.51 1016.56 1016.68 1016.88 1017.16 1017.51 1017.92 1018.36 1018.84 1019.34 1019.86 1020.38 1020.88 1021.37 1021.81 1022.19 1022.50 1022.72 1022.87 1022.95 1022.98 1023.00 1023.02 1023.07 1023.16 1023.31 1023.51 1023.73
1016.03 1016.20 1016.39 1016.54 1016.66 1016.72 1016.73 1016.70 1016.66 1016.62 1016.61 1016.65 1016.75 1016.92 1017.15 1017.44 1017.78 1018.16 1018.57 1019.01 1019.47 1019.94 1020.42 1020.89 1021.33 1021.73 1022.08 1022.37 1022.60 1022.77 1022.89 1023.00 1023.10 1023.22 1023.37 1023.55 1023.76 1023.98
1015.57 1015.79 1016.02 1016.23 1016.41 1016.53 1016.60 1016.63 1016.64 1016.64 1016.66 1016.71 1016.81 1016.95 1017.14 1017.38 1017.65 1017.95 1018.29 1018.65 1019.04 1019.44 1019.87 1020.30 1020.73 1021.14 1021.52 1021.86 1022.16 1022.40 1022.62 1022.80 1022.98 1023.16 1023.34 1023.54 1023.76 1023.98
1015.08 1015.34 1015.60 1015.85 1016.06 1016.22 1016.34 1016.42 1016.47 1016.51 1016.56 1016.64 1016.74 1016.87 1017.04 1017.24 1017.45 1017.69 1017.95 1018.24 1018.55 1018.88 1019.25 1019.64 1020.04 1020.44 1020.84 1021.22 1021.56 1021.87 1022.15 1022.40 1022.64 1022.86 1023.07 1023.29 1023.50 1023.71
1014.58 1014.84 1015.11 1015.37 1015.59 1015.77 1015.90 1016.01 1016.09 1016.16 1016.24 1016.34 1016.47 1016.61 1016.77 1016.94 1017.13 1017.32 1017.52 1017.74 1017.99 1018.26 1018.57 1018.91 1019.28 1019.67 1020.07 1020.46 1020.84 1021.19 1021.51 1021.80 1022.07 1022.32 1022.55 1022.77 1022.98 1023.18
1014.06 1014.30 1014.54 1014.77 1014.97 1015.13 1015.25 1015.36 1015.45 1015.54 1015.65 1015.77 1015.92 1016.09 1016.26 1016.44 1016.61 1016.79 1016.96 1017.15 1017.35 1017.58 1017.84 1018.14 1018.48 1018.85 1019.23 1019.62 1020.00 1020.37 1020.71 1021.02 1021.30 1021.56 1021.79 1022.01 1022.22 1022.42
1013.51 1013.69 1013.87 1014.03 1014.16 1014.27 1014.36 1014.44 1014.53 1014.63 1014.75 1014.91 1015.09 1015.29 1015.49 1015.70 1015.89 1016.08 1016.26 1016.44 1016.62 1016.83 1017.07 1017.35 1017.65 1018.00 1018.36 1018.73 1019.10 1019.45 1019.79 1020.09 1020.37 1020.62 1020.86 1021.07 1021.28 1021.48
1012.88 1012.97 1013.06 1013.13 1013.18 1013.21 1013.25 1013.29 1013.36 1013.46 1013.60 1013.78 1014.00 1014.24 1014.49 1014.74 1014.98 1015.21 1015.41 1015.61 1015.82 1016.03 1016.27 1016.53 1016.83 1017.15 1017.48 1017.83 1018.18 1018.51 1018.82 1019.11 1019.37 1019.61 1019.83 1020.04 1020.25 1020.45
1012.16 1012.14 1012.11 1012.07 1012.02 1011.98 1011.95 1011.95 1012.00 1012.10 1012.26 1012.47 1012.73 1013.02 1013.32 1013.63 1013.92 1014.20 1014.46 1014.70 1014.94 1015.18 1015.44 1015.71 1016.00 1016.31 1016.64 1016.96 1017.28 1017.59 1017.88 1018.14 1018.39 1018.61 1018.82 1019.03 1019.23 1019.44
1011.34 1011.19 1011.04 1010.89 1010.75 1010.63 1010.55 1010.52 1010.55 1010.66 1010.83 1011.08 1011.37 1011.71 1012.06 1012.42 1012.77 1013.11 1013.42 1013.72 1014.01 1014.29 1014.58 1014.88 1015.19 1015.51 1015.83 1016.15 1016.46 1016.75 1017.02 1017.27 1017.50 1017.71 1017.92 1018.12 1018.32 1018.54
1010.44 1010.16 1009.90 1009.66 1009.45 1009.28 1009.16 1009.11 1009.15 1009.26 1009.46 1009.72 1010.05 1010.42 1010.81 1011.21 1011.61 1011.99 1012.35 1012.71 1013.05 1013.38 1013.72 1014.06 1014.40 1014.75 1015.08 1015.41 1015.72 1016.01 1016.28 1016.52 1016.75 1016.96 1017.17 1017.37 1017.58 1017.79
1009.52 1009.14 1008.80 1008.49 1008.24 1008.04 1007.91 1007.87 1007.91 1008.04 1008.25 1008.54 1008.88 1009.26 1009.67 1010.08 1010.50 1010.91 1011.31 1011.70 1012.09 1012.47 1012.86 1013.25 1013.64 1014.02 1014.39 1014.74 1015.07 1015.37 1015.65 1015.91 1016.15 1016.37 1016.59 1016.80 1017.01 1017.23
Thickness
5741 5740 5738 5737 5736 5733 5731 5727 5719 5710 5707 5707 5705 5705 5704 5702 5700 5699 5697 5695 5694 5692 5691 5690 5689 5688 5686 5685 5684 5683 5682 5681 5680 5679 5677 5677 5676 5676
5738 5736 5734 5733 5731 5730 5728 5725 5722 5714 5705 5702 5700 5698 5697 5695 5693 5691 5688 5686 5684 5683 5682 5681 5680 5678 5677 5675 5674 5673 5673 5672 5671 5669 5668 5667 5667 5666
5733 5731 5729 5728 5726 5724 5723 5720 5717 5712 5703 5697 5695 5692 5690 5687 5684 5683 5681 5678 5675 5674 5672 5671 5669 5668 5666 5665 5664 5662 5662 5661 5660 5659 5658 5657 5656 5655
5726 5725 5723 5723 5720 5719 5717 5714 5710 5707 5701 5692 5687 5684 5682 5680 5677 5674 5671 5669 5666 5663 5661 5660 5658 5657 5655 5654 5652 5650 5650 5649 5648 5647 5647 5646 5644 5643
5721 5719 5717 5716 5713 5712 5710 5707 5704 5701 5696 5689 5682 5678 5675 5672 5668 5665 5662 5659 5656 5653 5650 5648 5646 5645 5644 5642 5640 5639 5638 5637 5636 5635 5634 5632 5631 5630
5716 5714 5712 5711 5708 5706 5704 5700 5697 5692 5688 5682 5676 5671 5667 5664 5661 5656 5652 5649 5646 5643 5640 5637 5635 5634 5632 5630 5629 5627 5625 5624 5622 5621 5620 5619 5617 5616
5710 5708 5707 5705 5704 5701 5698 5694 5691 5685 5680 5675 5669 5665 5660 5656 5652 5649 5644 5639 5636 5633 5630 5627 5625 5623 5621 5619 5617 5615 5613 5611 5610 5608 5607 5606 5604 5602
5703 5701 5700 5698 5696 5695 5692 5689 5686 5681 5675 5669 5663 5658 5654 5650 5646 5642 5636 5631 5626 5624 5621 5616 5614 5611 5609 5607 5605 5604 5602 5599 5597 5595 5594 5592 5590 5589
5697 5694 5693 5691 5689 5687 5684 5682 5678 5675 5672 5666 5659 5654 5649 5645 5641 5635 5630 5625 5621 5617 5613 5607 5605 5601 5599 5597 5595 5592 5590 5587 5585 5583 5581 5579 5577 5575
5690 5687 5685 5682 5681 5679 5676 5672 5668 5665 5662 5659 5655 5650 5646 5642 5637 5632 5625 5619 5614 5610 5607 5600 5596 5593 5591 5588 5585 5582 5579 5577 5574 5571 5569 5567 5565 5562
5682 5680 5678 5675 5673 5671 5667 5662 5658 5655 5653 5650 5647 5643 5639 5635 5631 5625 5618 5612 5604 5601 5599 5594 5588 5585 5581 5578 5576 5573 5570 5567 5564 5561 5558 5556 5554 5551
5674 5672 5670 5667 5665 5663 5659 5654 5649 5645 5643 5640 5637 5634 5631 5627 5623 5619 5613 5606 5598 5594 5592 5588 5582 5577 5572 5570 5568 5564 5561 5558 5555 5552 5550 5547 5544 5542
5667 5663 5661 5660 5657 5654 5651 5647 5643 5639 5635 5631 5627 5624 5621 5618 5615 5612 5608 5603 5595 5589 5587 5583 5576 5570 5565 5561 5559 5557 5553 5550 5547 5544 5542 5539 5537 5534
5660 5657 5654 5652 5649 5646 5642 5639 5635 5632 5627 5622 5618 5614 5611 5608 5606 5603 5600 5597 5592 5587 5583 5578 5572 5565 5559 5553 5550 5548 5546 5543 5540 5537 5534 5532 5529 5526
5654 5651 5648 5644 5641 5637 5634 5631 5627 5622 5617 5613 5608 5605 5603 5601 5598 5595 5591 5588 5584 5580 5576 5572 5567 5561 5555 5549 5544 5540 5538 5536 5533 5530 5527 5524 5522 5519
5646 5643 5640 5636 5633 5629 5626 5622 5618 5614 5609 5605 5601 5599 5596 5593 5589 5586 5581 5577 5572 5569 5568 5564 5560 5555 5548 5543 5538 5534 5532 5528 5527 5524 5521 5518 5516 5513
5638 5634 5630 5626 5622 5619 5616 5613 5610 5606 5602 5599 5595 5591 5588 5584 5581 5578 5573 5568 5563 5559 5556 5555 5552 5549 5544 5538 5532 5529 5526 5523 5521 5518 5515 5511 5510 5508
5632 5626 5622 5618 5614 5611 5607 5604 5601 5598 5595 5592 5588 5584 5581 5577 5573 5569 5565 5561 5556 5552 5549 5546 5542 5539 5534 5532 5530 5524 5521 5518 5516 5513 5509 5505 5503 5504
5624 5619 5615 5611 5608 5605 5601 5597 5594 5591 5588 5585 5582 5578 5574 5570 5566 5562 5558 5553 5549 5545 5542 5539 5535 5530 5524 5521 5522 5522 5516 5513 5510 5506 5504 5501 5498 5498
5618 5614 5610 5606 5603 5599 5595 5592 5588 5585 5582 5578 5575 5571 5568 5564 5560 5555 5551 5547 5543 5539 5535 5532 5529 5525 5520 5517 5514 5514 5514 5509 5505 5501 5499 5497 5494 5494
5612 5608 5605 5601 5598 5594 5590 5587 5583 5579 5575 5572 5568 5565 5561 5557 5553 5549 5545 5542 5538 5533 5529 5526 5525 5523 5518 5513 5508 5507 5508 5506 5503 5499 5495 5490 5487 5485
5607 5604 5600 5597 5593 5589 5585 5581 5577 5573 5569 5565 5562 5558 5555 5551 5547 5543 5539 5535 5532 5528 5525 5522 5520 5516 5511 5507 5503 5500 5499 5499 5498 5495 5492 5488 5483 5479
5603 5600 5596 5592 5588 5584 5580 5575 5571 5566 5562 5558 5555 5551 5548 5544 5541 5537 5534 5530 5526 5523 5519 5515 5512 5509 5505 5501 5497 5494 5493 5491 5489 5486 5486 5485 5482 5480